Flag for Germany Weather past 2 weeks in Göttingen, Lower Saxony, Germany

Now
54 °F

Broken clouds.


Feels Like: 52 °F
Forecast: 49 / 64 °F
Wind: 7 mph from Southwest

Location: Kassel / Calden

Current Time: Apr 25, 2015 at 10:05:30 PM

Latest Report: Apr 25, 2015 at 9:20 PM


Visibility: N/A

Pressure: 29.77 "Hg

Humidity: 88%

Dew point: 50 °F

Location of GöttingenLocation

Historic Weather in Göttingen — Graph

°F

Göttingen temperature yesterday

Maximum temperature yesterday: 68 °F (at 3:50 PM)
Minimum temperature yesterday: 39 °F (at 5:50 AM)
Average temperature yesterday: 59 °F

Past Weeks' High & Low Weather Summary

 TemperatureHumidityPressure
High73 °F (Apr 15, 3:50 PM)100% (Apr 23, 6:50 AM)30.42 "Hg (Apr 23, 6:50 AM)
Low30 °F (Apr 19, 6:20 AM)26% (Apr 21, 6:20 PM)29.74 "Hg (Apr 25, 3:20 PM)
Average52 °F59%30.15 "Hg
* Reported Apr 10 8:20 PM — Apr 25 8:50 PM, Göttingen, Weather by CustomWeather, © 2015

Note: Actual official high and low records may vary slightly from our data, if they occured in-between our weather recording intervals... More about our weather records

Advertising

Göttingen weather history for previous 24 hours

 ConditionsComfort  
Time TempWeatherWind HumidityBarometerVisibility
8:50 PM
Sat, Apr 25
54 °FBroken clouds.7 mph88%29.77 "HgN/A
8:20 PM54 °FPartly sunny.3 mph94%29.77 "HgN/A
7:50 PM55 °FBroken clouds.2 mph88%29.77 "HgN/A
7:20 PM54 °FPartly sunny.2 mph94%29.74 "Hg5 mi
6:50 PM54 °FBroken clouds.3 mph94%29.74 "Hg4 mi
6:20 PM54 °FLight rain. Fog.3 mph94%29.77 "Hg3 mi
5:50 PM54 °FRain. Partly sunny.5 mph94%29.77 "Hg4 mi
5:20 PM55 °FLight rain. Partly sunny.8 mph88%29.74 "HgN/A
4:50 PM57 °FLight rain. Partly sunny.10 mph72%29.74 "HgN/A
4:20 PM59 °FDrizzle. Partly sunny.12 mph68%29.74 "HgN/A
3:50 PM59 °FPartly sunny.12 mph68%29.74 "HgN/A
3:20 PM59 °FPartly sunny.10 mph68%29.74 "HgN/A
2:50 PM59 °FPartly sunny.12 mph68%29.77 "HgN/A
2:20 PM59 °FPartly sunny.15 mph68%29.77 "HgN/A
1:50 PM59 °FPartly sunny.15 mph63%29.77 "HgN/A
1:20 PM59 °FPartly sunny.16 mph59%29.77 "HgN/A
12:50 PM61 °FLight rain. Overcast.12 mph55%29.77 "HgN/A
12:20 PM59 °FSunny.14 mph59%29.77 "Hg10 mi
11:50 AM59 °FSunny.12 mph59%29.80 "Hg10 mi
11:20 AM61 °FSunny.14 mph52%29.80 "Hg10 mi
10:50 AM59 °FPassing clouds.8 mph59%29.77 "HgN/A
10:20 AM59 °FPassing clouds.3 mph55%29.80 "HgN/A
9:50 AM57 °FSunny.3 mph59%29.77 "Hg10 mi
9:20 AM57 °FSunny.5 mph59%29.80 "Hg10 mi
8:50 AM55 °FSunny.5 mph59%29.80 "Hg10 mi
8:20 AM52 °FSunny.2 mph67%29.80 "Hg10 mi
7:50 AM50 °FPassing clouds.3 mph67%29.80 "HgN/A
7:20 AM48 °FSunny.2 mph71%29.80 "Hg10 mi
6:50 AM46 °FClear.2 mph76%29.80 "Hg10 mi
6:20 AM48 °FClear.2 mph71%29.80 "Hg10 mi
Weather by CustomWeather, © 2015

See weather overviewHow to use our weather pages